| time (UTC) | temp C | wind direction | speed KPH | gust KPH | rain 1hr cm | rain 24hr cm | rain mn cm | humidity % | barometer mb |
| 20260905193059 | 28 | 280 | 4.8 | 14.5 | 0.00 | 0.00 | 0.00 | 35 | 1015.8 |
| 20260905191546 | 29 | 240 | 4.8 | 16.1 | 0.00 | 0.00 | 0.00 | 34 | 1015.6 |
| 20260905190145 | 29 | 269 | 4.8 | 14.5 | 0.00 | 0.00 | 0.00 | 34 | 1015.5 |
| 20260905184549 | 29 | 241 | 1.6 | 11.3 | 0.00 | 0.00 | 0.00 | 34 | 1015.3 |
| 20260905183044 | 30 | 264 | 1.6 | 8.0 | 0.00 | 0.00 | 0.00 | 34 | 1015.4 |
| 20260905181559 | 30 | 296 | 4.8 | 17.7 | 0.00 | 0.00 | 0.00 | 33 | 1015.3 |
| 20260905180043 | 31 | 252 | 6.4 | 14.5 | 0.00 | 0.00 | 0.00 | 31 | 1015.3 |
| 20260905174541 | 31 | 259 | 1.6 | 16.1 | 0.00 | 0.00 | 0.00 | 31 | 1015.1 |
| 20260905173043 | 31 | 217 | 3.2 | 11.3 | 0.00 | 0.00 | 0.00 | 30 | 1015.1 |
| 20260905171541 | 32 | 256 | 0.0 | 6.4 | 0.00 | 0.00 | 0.00 | 31 | 1015.0 |
| 20260905170040 | 32 | 288 | 4.8 | 9.7 | 0.00 | 0.00 | 0.00 | 30 | 1015.1 |
| 20260905164538 | 32 | 136 | 4.8 | 12.9 | 0.00 | 0.00 | 0.00 | 29 | 1015.1 |
| 20260905163039 | 32 | 246 | 1.6 | 9.7 | 0.00 | 0.00 | 0.00 | 29 | 1015.0 |
| 20260905161551 | 33 | 233 | 1.6 | 11.3 | 0.00 | 0.00 | 0.00 | 27 | 1015.0 |
| 20260905160038 | 33 | 287 | 3.2 | 9.7 | 0.00 | 0.00 | 0.00 | 27 | 1015.0 |
| 20260905154540 | 33 | 242 | 1.6 | 11.3 | 0.00 | 0.00 | 0.00 | 27 | 1015.1 |
| 20260905153037 | 33 | 308 | 4.8 | 9.7 | 0.00 | 0.00 | 0.00 | 27 | 1015.1 |
| 20260905151535 | 33 | 354 | 4.8 | 11.3 | 0.00 | 0.00 | 0.00 | 26 | 1015.0 |
| 20260905150036 | 33 | 322 | 3.2 | 11.3 | 0.00 | 0.00 | 0.00 | 27 | 1014.9 |
| 20260905144534 | 33 | 302 | 4.8 | 16.1 | 0.00 | 0.00 | 0.00 | 26 | 1014.9 |
| 20260905143036 | 33 | 339 | 4.8 | 19.3 | 0.00 | 0.00 | 0.00 | 27 | 1015.0 |
| 20260905141535 | 33 | 281 | 4.8 | 12.9 | 0.00 | 0.00 | 0.00 | 28 | 1015.3 |
| 20260905140029 | 33 | 296 | 8.0 | 16.1 | 0.00 | 0.00 | 0.00 | 28 | 1015.6 |
| 20260905134527 | 33 | 324 | 4.8 | 11.3 | 0.00 | 0.00 | 0.00 | 28 | 1015.7 |
| 20260905133026 | 33 | 300 | 3.2 | 11.3 | 0.00 | 0.00 | 0.00 | 27 | 1015.8 |
| 20260905131525 | 33 | 294 | 6.4 | 11.3 | 0.00 | 0.00 | 0.00 | 29 | 1016.1 |
| 20260905130025 | 33 | 302 | 0.0 | 9.7 | 0.00 | 0.00 | 0.00 | 30 | 1016.2 |
| 20260905124524 | 33 | 267 | 0.0 | 11.3 | 0.00 | 0.00 | 0.00 | 31 | 1016.1 |
| 20260905123023 | 33 | 297 | 1.6 | 11.3 | 0.00 | 0.00 | 0.00 | 31 | 1016.4 |
| 20260905121526 | 32 | 269 | 1.6 | 8.0 | 0.00 | 0.00 | 0.00 | 31 | 1016.4 |
| 20260905120025 | 32 | 256 | 3.2 | 8.0 | 0.00 | 0.00 | 0.00 | 32 | 1016.5 |
| 20260905114520 | 32 | 231 | 1.6 | 9.7 | 0.00 | 0.00 | 0.00 | 31 | 1016.5 |
| 20260905113020 | 32 | 229 | 1.6 | 4.8 | 0.00 | 0.00 | 0.00 | 32 | 1016.7 |
| 20260905111521 | 32 | 191 | 0.0 | 4.8 | 0.00 | 0.00 | 0.00 | 31 | 1016.8 |
| 20260905110020 | 32 | 254 | 1.6 | 8.0 | 0.00 | 0.00 | 0.00 | 31 | 1016.9 |
| 20260905104519 | 33 | 229 | 3.2 | 9.7 | 0.00 | 0.00 | 0.00 | 31 | 1016.8 |
| 20260905103015 | 32 | 229 | 3.2 | 9.7 | 0.00 | 0.00 | 0.00 | 32 | 1017.1 |
| 20260905101513 | 32 | 229 | 4.8 | 9.7 | 0.00 | 0.00 | 0.00 | 33 | 1017.1 |
| 20260905100011 | 31 | 113 | 3.2 | 9.7 | 0.00 | 0.00 | 0.00 | 35 | 1017.1 |
| 20260905094510 | 30 | 79 | 3.2 | 12.9 | 0.00 | 0.00 | 0.00 | 36 | 1017.0 |
| 20260905093007 | 30 | 99 | 1.6 | 8.0 | 0.00 | 0.00 | 0.00 | 35 | 1017.0 |
| 20260905091505 | 30 | 344 | 0.0 | 8.0 | 0.00 | 0.00 | 0.00 | 35 | 1017.0 |
| 20260905090005 | 30 | 283 | 1.6 | 8.0 | 0.00 | 0.00 | 0.00 | 35 | 1016.9 |
| 20260905084502 | 29 | 90 | 0.0 | 8.0 | 0.00 | 0.00 | 0.00 | 36 | 1016.7 |
| 20260905083058 | 28 | 103 | 3.2 | 8.0 | 0.00 | 0.00 | 0.00 | 35 | 1016.8 |
| 20260905081557 | 28 | 39 | 1.6 | 8.0 | 0.00 | 0.00 | 0.00 | 36 | 1016.9 |
| 20260905074607 | 27 | 131 | 0.0 | 6.4 | 0.00 | 0.00 | 0.00 | 37 | 1016.9 |
| 20260905073055 | 26 | 116 | 1.6 | 6.4 | 0.00 | 0.00 | 0.00 | 38 | 1016.6 |
| 20260905071554 | 26 | 101 | 0.0 | 4.8 | 0.00 | 0.00 | 0.00 | 39 | 1016.3 |
| 20260905070106 | 25 | 95 | 0.0 | 4.8 | 0.00 | 0.00 | 0.00 | 39 | 1016.2 |
| 20260905064550 | 25 | 72 | 0.0 | 6.4 | 0.00 | 0.00 | 0.00 | 39 | 1016.0 |
| 20260905063046 | -17 | 0.0 | 0.0 | 0.00 | 0.00 | 0.00 | 1015.9 | ||
| 20260905061541 | -17 | 0.0 | 0.0 | 0.00 | 0.00 | 0.00 | 1015.9 | ||
| 20260905060037 | -17 | 0.0 | 0.0 | 0.00 | 0.00 | 0.00 | 1015.8 | ||
| 20260905054546 | -17 | 0.0 | 0.0 | 0.00 | 0.00 | 0.00 | 1015.6 | ||
| 20260905053039 | -17 | 0.0 | 0.0 | 0.00 | 0.00 | 0.00 | 1015.5 | ||
| 20260905051536 | -17 | 0.0 | 0.0 | 0.00 | 0.00 | 0.00 | 1015.5 | ||
| 20260905050021 | -17 | 0.0 | 0.0 | 0.00 | 0.00 | 0.00 | 1015.5 | ||
| 20260905044520 | -17 | 105 | 0.0 | 6.4 | 0.00 | 0.00 | 0.00 | 1015.6 | |
| 20260905043012 | 26 | 101 | 0.0 | 4.8 | 0.00 | 0.00 | 0.00 | 36 | 1015.4 |
| 20260905041512 | 26 | 92 | 0.0 | 4.8 | 0.00 | 0.00 | 0.00 | 36 | 1015.3 |
| 20260905040010 | 26 | 91 | 0.0 | 3.2 | 0.00 | 0.00 | 0.00 | 36 | 1015.3 |
| 20260905034509 | 26 | 100 | 1.6 | 8.0 | 0.00 | 0.00 | 0.00 | 35 | 1015.4 |
| 20260905033011 | 26 | 109 | 0.0 | 1.6 | 0.00 | 0.00 | 0.00 | 35 | 1015.4 |
| 20260905031510 | 26 | 84 | 0.0 | 3.2 | 0.00 | 0.00 | 0.00 | 35 | 1015.6 |
| 20260905030004 | 26 | 53 | 0.0 | 3.2 | 0.00 | 0.00 | 0.00 | 34 | 1015.6 |
| 20260905024501 | 26 | 97 | 0.0 | 4.8 | 0.00 | 0.00 | 0.00 | 33 | 1015.7 |
| 20260905023104 | 26 | 108 | 0.0 | 3.2 | 0.00 | 0.00 | 0.00 | 33 | 1015.8 |
| 20260905021558 | 26 | 103 | 0.0 | 4.8 | 0.00 | 0.00 | 0.00 | 32 | 1015.8 |
| 20260905020059 | 27 | 99 | 1.6 | 8.0 | 0.00 | 0.00 | 0.00 | 31 | 1015.8 |
| 20260905014554 | 27 | 91 | 0.0 | 3.2 | 0.00 | 0.00 | 0.00 | 31 | 1016.0 |
| 20260905013055 | 27 | 103 | 0.0 | 3.2 | 0.00 | 0.00 | 0.00 | 30 | 1016.1 |
| 20260905011556 | 27 | 117 | 0.0 | 8.0 | 0.00 | 0.00 | 0.00 | 30 | 1016.1 |
| 20260905010105 | 27 | 98 | 0.0 | 3.2 | 0.00 | 0.00 | 0.00 | 30 | 1016.2 |
| 20260905004550 | 27 | 80 | 0.0 | 4.8 | 0.00 | 0.00 | 0.00 | 29 | 1016.2 |
| 20260905003049 | 27 | 104 | 1.6 | 4.8 | 0.00 | 0.00 | 0.00 | 29 | 1016.2 |
| 20260905001550 | 28 | 127 | 0.0 | 4.8 | 0.00 | 0.00 | 0.00 | 29 | 1016.1 |
| 20260905000048 | 28 | 88 | 1.6 | 8.0 | 0.00 | 0.00 | 0.00 | 28 | 1016.2 |
| 20260904234550 | 28 | 87 | 0.0 | 4.8 | 0.00 | 0.00 | 0.00 | 28 | 1016.2 |
| 20260904233045 | 28 | 117 | 0.0 | 4.8 | 0.00 | 0.00 | 0.00 | 28 | 1016.2 |
| 20260904231545 | 28 | 110 | 0.0 | 4.8 | 0.00 | 0.00 | 0.00 | 28 | 1016.2 |
| 20260904230046 | 27 | 79 | 0.0 | 6.4 | 0.00 | 0.00 | 0.00 | 29 | 1016.2 |
| 20260904224601 | 27 | 34 | 0.0 | 3.2 | 0.00 | 0.00 | 0.00 | 29 | 1016.2 |
| 20260904223141 | 28 | 134 | 6.4 | 12.9 | 0.00 | 0.00 | 0.00 | 28 | 1016.3 |
| 20260904221538 | 28 | 150 | 0.0 | 0.0 | 0.00 | 0.00 | 0.00 | 28 | 1016.0 |
| 20260904220033 | 28 | 156 | 0.0 | 1.6 | 0.00 | 0.00 | 0.00 | 27 | 1015.9 |
| 20260904214532 | 30 | 144 | 1.6 | 8.0 | 0.00 | 0.00 | 0.00 | 25 | 1015.9 |
| 20260904213033 | 31 | 63 | 0.0 | 1.6 | 0.00 | 0.00 | 0.00 | 24 | 1015.8 |
| 20260904211533 | 30 | 5 | 0.0 | 3.2 | 0.00 | 0.00 | 0.00 | 24 | 1015.9 |
| 20260904210030 | 31 | 49 | 0.0 | 3.2 | 0.00 | 0.00 | 0.00 | 24 | 1016.0 |
| 20260904204530 | 31 | 307 | 0.0 | 3.2 | 0.00 | 0.00 | 0.00 | 24 | 1016.0 |
| 20260904203038 | 30 | 30 | 0.0 | 1.6 | 0.00 | 0.00 | 0.00 | 24 | 1015.9 |
| 20260904201529 | 30 | 302 | 0.0 | 3.2 | 0.00 | 0.00 | 0.00 | 24 | 1015.8 |
| 20260904200028 | 30 | 66 | 0.0 | 3.2 | 0.00 | 0.00 | 0.00 | 25 | 1015.8 |
| 20260904194528 | 29 | 75 | 0.0 | 3.2 | 0.00 | 0.00 | 0.00 | 28 | 1015.6 |